Location: Coatesville
(39.9830°N, 75.8240°W)
Time: 11:31:54
(UTC-04:00)

Envisat - Visible Passes

Search period start: 14 October 2019 00:00
Search period end: 24 October 2019 00:00
Orbit: 764 x 766 km, 98.1° (Epoch: 14 October)

Date Brightness Start Highest point End Pass type
(mag) Time Alt. Az. Time Alt. Az. Time Alt. Az.
14 Oct 3.0 18:53:21 10° SSE 18:58:21 63° ENE 19:03:24 10° N visible
14 Oct 6.0 20:35:07 10° WSW 20:37:48 14° W 20:40:29 10° WNW visible
15 Oct 4.8 19:56:12 10° SSW 20:00:43 32° W 20:05:15 10° NNW visible
16 Oct 3.3 19:18:46 10° S 19:23:49 74° WSW 19:28:55 10° NNW visible
17 Oct 3.2 18:42:16 10° SE 18:47:08 50° ENE 18:52:03 10° N visible
17 Oct 5.7 20:22:57 10° SW 20:26:25 18° W 20:29:54 10° NW visible
18 Oct 4.4 19:44:38 10° SSW 19:49:23 41° W 19:54:12 10° NNW visible
19 Oct 3.0 19:07:29 10° SSE 19:12:34 88° ENE 19:17:40 10° NNW visible
20 Oct 5.4 20:11:03 10° SSW 20:15:03 23° W 20:19:04 10° NW visible
21 Oct 6.3 06:42:16 10° ENE 06:44:54 14° E 06:47:32 10° ESE visible
21 Oct 3.9 19:33:09 10° S 19:38:05 52° W 19:43:04 10° NNW visible
22 Oct 2.9 18:56:18 10° SSE 19:01:19 70° ENE 19:06:23 10° N visible
22 Oct 6.1 20:38:34 10° WSW 20:40:50 13° W 20:43:05 10° WNW visible
23 Oct 5.0 19:59:19 10° SSW 20:03:43 29° W 20:08:07 10° NW visible
